This demonstration page uses our WeatherBlox Daily Observations layout. Learn more.

40.92945, -100.16068

Hourly Observations for July 4, 2015

Temp ( °F °C ) Dew Point ( °F °C ) Humidity (%) Winds ( mph kmh ) Pressure ( in mb ) Visibility ( mi km ) Precip ( " mm )
12:15 am 00:15 Clear 66 18.7 62 16.6 88 88 SSE 7 11 29.97 1015 10 16.0934 N/A
12:35 am 00:35 Clear 65 18.5 62 16.5 88 88 SSE 6 9 29.97 1015 10 16.0934 N/A
12:55 am 00:55 Clear 66 18.7 62 16.7 88 88 SSE 6 9 29.97 1015 10 16.0934 N/A
1:15 am 01:15 Clear 66 18.7 62 16.5 87 87 SSE 7 11 29.97 1015 10 16.0934 N/A
1:35 am 01:35 Clear 65 18.1 61 16.2 89 89 SE 6 9 29.97 1015 7 11.26538 N/A
1:55 am 01:55 Clear 64 18 61 16.2 89 89 SSE 6 9 29.97 1015 7 11.26538 N/A
2:15 am 02:15 Clear 64 17.7 61 16.1 90 90 SSE 6 9 29.97 1015 7 11.26538 N/A
2:35 am 02:35 Clear 63 17.3 61 16 92 92 SSE 5 7 29.97 1015 7 11.26538 N/A
2:55 am 02:55 Clear 64 17.7 61 16.3 92 92 SSE 6 9 29.97 1015 7 11.26538 N/A
3:15 am 03:15 Clear 64 18 62 16.5 91 91 SSE 6 9 29.94 1014 7 11.26538 N/A
3:35 am 03:35 Clear 64 17.8 61 16.2 90 90 SSE 6 9 29.94 1014 7 11.26538 N/A
3:55 am 03:55 Clear 64 17.8 61 16.2 90 90 SSE 5 7 29.94 1014 7 11.26538 N/A
4:15 am 04:15 Clear 64 18 61 16.2 89 89 SSE 6 9 29.94 1014 7 11.26538 N/A
4:35 am 04:35 Clear 64 17.6 61 16 90 90 SE 5 7 29.94 1014 7 11.26538 N/A
4:55 am 04:55 Clear 64 17.5 61 16 91 91 SE 5 7 29.94 1014 7 11.26538 N/A
5:15 am 05:15 Clear 64 17.5 61 16 91 91 SE 5 7 29.94 1014 7 11.26538 N/A
5:35 am 05:35 Clear 63 17.1 60 15.6 91 91 ESE 3 6 29.94 1014 7 11.26538 N/A
5:55 am 05:55 Clear 62 16.8 60 15.4 92 92 SE 5 7 29.94 1014 7 11.26538 N/A
6:15 am 06:15 Sunny with Mist and Fog 62 16.8 60 15.7 93 93 SE 6 9 29.94 1014 4 6.43736 N/A
6:35 am 06:35 Sunny with Mist and Fog 63 17.1 61 16 93 93 SE 6 9 29.94 1014 5 8.0467 N/A
6:55 am 06:55 Sunny with Mist and Fog 64 17.6 62 16.5 93 93 SSE 9 15 29.94 1014 5 8.0467 N/A
7:15 am 07:15 Sunny with Mist and Fog 64 18 62 16.5 91 91 SSE 9 15 29.94 1014 5 8.0467 N/A
7:35 am 07:35 Sunny 65 18.2 62 16.6 90 90 SSE 9 15 29.94 1014 7 11.26538 N/A
7:55 am 07:55 Sunny 65 18.6 62 16.9 90 90 SE 9 15 29.94 1014 7 11.26538 N/A
8:15 am 08:15 Sunny 66 19.1 63 17.3 89 89 SSE 9 15 29.91 1013 7 11.26538 N/A
8:35 am 08:35 Sunny 68 20 64 17.6 86 86 SSE 10 17 29.91 1013 7 11.26538 N/A
8:55 am 08:55 Sunny 69 20.6 64 18 85 85 SSE 8 13 29.88 1012 10 16.0934 N/A
9:15 am 09:15 Sunny 71 21.8 64 18 79 79 S 10 17 29.91 1013 10 16.0934 N/A
9:35 am 09:35 Sunny 73 23 65 18.1 74 74 S 9 15 29.91 1013 10 16.0934 N/A
9:55 am 09:55 Sunny 76 24.3 65 18.2 69 69 SSE 12 19 29.85 1011 10 16.0934 N/A
10:15 am 10:15 Sunny 76 24.6 65 18.2 68 68 S 12 19 29.85 1011 10 16.0934 N/A
10:35 am 10:35 Sunny 78 25.6 65 18.4 65 65 S 10 17 29.85 1011 10 16.0934 N/A
10:55 am 10:55 Sunny 79 26.2 64 18 61 61 S 14 22 29.85 1011 10 16.0934 N/A
11:15 am 11:15 Sunny 80 26.9 65 18.3 59 59 SSE 12 19 29.83 1010 10 16.0934 N/A
11:35 am 11:35 Sunny 81 27.4 66 18.8 59 59 SSE 14 22 29.83 1010 10 16.0934 N/A
11:55 am 11:55 Sunny 82 27.6 66 18.8 59 59 SSE 15 24 29.83 1010 10 16.0934 N/A
12:15 pm 12:15 Sunny 82 28 65 18.6 57 57 S 16 26 29.8 1009 10 16.0934 N/A
12:35 pm 12:35 Sunny 84 28.8 65 18.6 54 54 SSE 15 24 29.8 1009 10 16.0934 N/A
12:55 pm 12:55 Sunny 84 29 66 18.7 54 54 SSE 16 26 29.8 1009 10 16.0934 N/A
1:15 pm 13:15 Sunny 84 29 65 18.4 53 53 SSE 21 33 29.8 1009 10 16.0934 N/A
1:35 pm 13:35 Sunny 85 29.7 66 18.7 52 52 S 15 24 29.77 1008 10 16.0934 N/A
1:55 pm 13:55 Partly Cloudy 85 29.3 66 18.7 53 53 SSE 16 26 29.8 1009 10 16.0934 N/A
2:15 pm 14:15 Partly Cloudy 86 29.9 66 18.7 51 51 S 17 28 29.77 1008 10 16.0934 N/A
2:35 pm 14:35 Partly Cloudy 87 30.3 66 18.8 50 50 SSE 14 22 29.77 1008 10 16.0934 N/A
2:55 pm 14:55 Partly Cloudy 87 30.5 65 18.5 49 49 SSE 16 26 29.77 1008 10 16.0934 N/A
3:15 pm 15:15 Partly Cloudy 88 31 65 18.4 47 47 S 18 30 29.77 1008 10 16.0934 N/A
3:35 pm 15:35 Sunny 88 31.1 65 18.5 47 47 SSE 15 24 29.74 1007 10 16.0934 N/A
3:55 pm 15:55 Sunny 89 31.5 65 18.2 45 45 SSE 16 26 29.74 1007 10 16.0934 N/A
4:15 pm 16:15 Sunny 89 31.7 65 18.2 45 45 SSE 17 28 29.74 1007 10 16.0934 N/A
4:35 pm 16:35 Sunny 89 31.8 65 18.2 44 44 SSE 17 28 29.74 1007 10 16.0934 N/A
4:55 pm 16:55 Sunny 90 32 65 18.3 44 44 SE 18 30 29.74 1007 10 16.0934 N/A
5:15 pm 17:15 Sunny 89 31.8 64 17.9 43 43 SSE 16 26 29.71 1006 10 16.0934 N/A
5:35 pm 17:35 Sunny 90 32 64 17.8 43 43 SSE 21 33 29.71 1006 10 16.0934 N/A
5:55 pm 17:55 Sunny 89 31.7 64 17.9 44 44 SSE 17 28 29.71 1006 10 16.0934 N/A
6:15 pm 18:15 Sunny 89 31.6 65 18.2 45 45 SSE 17 28 29.71 1006 10 16.0934 N/A
6:35 pm 18:35 Sunny 88 31.3 65 18.3 46 46 SSE 16 26 29.71 1006 10 16.0934 N/A
6:55 pm 18:55 Sunny 88 31 65 18.5 47 47 SSE 17 28 29.71 1006 10 16.0934 N/A
7:15 pm 19:15 Sunny 87 30.5 66 18.9 50 50 SE 14 22 29.71 1006 10 16.0934 N/A
7:35 pm 19:35 Sunny 86 30.1 66 18.7 50 50 SE 15 24 29.68 1005 10 16.0934 N/A
7:55 pm 19:55 Sunny 85 29.7 66 18.7 52 52 SE 13 20 29.68 1005 10 16.0934 N/A
8:15 pm 20:15 Sunny 84 29.1 66 19 54 54 SSE 14 22 29.68 1005 10 16.0934 N/A
8:35 pm 20:35 Sunny 83 28.4 66 19 57 57 SE 14 22 29.71 1006 10 16.0934 N/A
8:55 pm 20:55 Sunny 82 27.8 66 19 59 59 SSE 13 20 29.71 1006 10 16.0934 N/A
9:15 pm 21:15 Clear 81 27.2 66 19 61 61 SE 13 20 29.74 1007 10 16.0934 N/A
9:35 pm 21:35 Clear 80 26.7 66 19 63 63 SE 14 22 29.74 1007 10 16.0934 N/A
9:55 pm 21:55 Clear 79 26.1 66 19 65 65 SSE 14 22 29.74 1007 10 16.0934 N/A
10:15 pm 22:15 Clear 79 26 66 18.9 65 65 SSE 13 20 29.74 1007 10 16.0934 N/A
10:35 pm 22:35 Clear 78 25.8 66 18.7 65 65 SSE 13 20 29.74 1007 10 16.0934 N/A
10:55 pm 22:55 Clear 78 25.5 65 18.6 66 66 SSE 10 17 29.77 1008 10 16.0934 N/A
11:15 pm 23:15 Clear 77 25.2 65 18.5 66 66 SSE 10 17 29.8 1009 10 16.0934 N/A
11:35 pm 23:35 Clear 76 24.6 65 18.5 69 69 SSE 9 15 29.8 1009 10 16.0934 N/A
11:55 pm 23:55 Clear 76 24.5 65 18.5 69 69 SSE 14 22 29.8 1009 10 16.0934 N/A

Powered by AerisWeather